891  
ASHW40 PHFO 191330  
RWRHI  
 
WEATHER ROUNDUP FOR HAWAII  
NATIONAL WEATHER SERVICE HONOLULU HI  
300 AM HST FRI DEC 19 2014  
 
THIS IS AN AUTOMATED REPORT THAT HAS NOT BEEN QUALITY CONTROLLED.  
 
NOTE..."FAIR" INDICATES FEW OR NO CLOUDS BELOW 12,000 FEET WITH NO  
SIGNIFICANT WEATHER AND/OR S TO VISIBILITY
.  
 
* - THESE SITES REPORT LIMITED FIELDS  
 
HIZ001>004-191400-  
KAUAI-NIIHAU-  
 
CITY SKY/WX TMP DP RH WIND PRES REMARKS
 
LIHUE APT CLOUDY 70 66 87 N7 30.12F  
PORT ALLEN* N/A 72 N/A N/A E15G22 N/A  
POIPU* N/A 73 N/A N/A NE7G18 N/A  
PRINCEVILLE* N/A 70 N/A N/A MISG N/A  
KOKOLE POINT* NOT AVBL  
MOLOAA DAIRY* NOT AVBL  
WAIMEA HTS* NOT AVBL  
PUU OPAE* NOT AVBL  
PUU LUA* NOT AVBL  
MAKAHA RIDGE* NOT AVBL  

 
 
HIZ005>011-191400-  
OAHU-  
 
CITY SKY/WX TMP DP RH WIND PRES REMARKS
 
HONOLULU PTCLDY 74 66 76 NE8 30.09F  
KALAELOA CLEAR 69 64 84 NE5 30.10F  
KANEOHE MCB CLOUDY 75 66 73 E9 30.10F  
WHEELER FIELD FAIR 65 63 93 CALM 30.11F  
BELLOWS* N/A N/A N/A N/A NE20G25 N/A  
KAHUKU* N/A N/A N/A N/A NE10G20 N/A  
WHEELER* NOT AVBL  
WAIANAE HARBOR NOT AVBL  
DILLINGHAM* N/A 64 63 94 E1 N/A  
KAHUKU TRN* N/A 70 63 78 E9G20 N/A  
KAWAILOA* N/A 68 64 88 E9G18 N/A  
KII* N/A 75 68 78 E18G24 N/A  
MAKUA RANGE* N/A 73 63 68 E6G12 N/A  
OAHU FOREST NW NOT AVBL  
SCHOFIELD BRK* N/A 64 63 94 CALM N/A  
SCHOFIELD S* NOT AVBL  
WAIANAE VLY* NOT AVBL  
KUAOKALA* NOT AVBL  
HONOULIUULI* NOT AVBL  
MOKUOLOE IS* N/A N/A N/A N/A MISG N/A  
PALEHUA* NOT AVBL  
WAIAWA PHB* NOT AVBL  

 
 
HIZ012>013-191400-  
MOLOKAI-  
 
CITY SKY/WX TMP DP RH WIND PRES REMARKS
 
MOLOKAI AIRPT PTCLDY 72 66 81 NE13G20 30.09F  
KALAUPAPA NOT AVBL  
MAKAPULAPAI* NOT AVBL  
MOLOKAI 1* NOT AVBL  
PUU ALII* N/A 56 56 100 E3G12 N/A  

 
 
HIZ016-191400-  
KAHOOLAWE-  
 
CITY SKY/WX TMP DP RH WIND PRES REMARKS
 
KAHOOLAWE* NOT AVBL  
HAKIOAWA* N/A 68 65 91 MISG 30.49F  
HONOKANAIA* N/A 75 65 70 N14G33 30.08  
KANELOA* N/A 73 68 83 E23G35 29.29F  
KEALIALALO* NOT AVBL  
LUA MAKIKA* NOT AVBL  

 
 
HIZ014>015-191400-  
LANAI-  
 
CITY SKY/WX TMP DP RH WIND PRES REMARKS
 
LANAI CITY FAIR 65 65 100 NE8 30.12F  
LANAI 1* NOT AVBL  

 
 
HIZ017>028-191400-  
MAUI-  
 
CITY SKY/WX TMP DP RH WIND PRES REMARKS
 
KAHULUI PTCLDY 68 62 81 E8 30.08S  
KAPALUA-W MAUI NOT AVBL  
HANA AIRPORT MOCLDY 73 66 78 E6 30.13F  
HANA* N/A 73 N/A N/A E8G16 N/A  
HALEAKALA SUMM N/A 48 -22 5 E33 N/A  
MAALAEA BAY* NOT AVBL  
HALEAKALA* NOT AVBL  
KAUPO GAP* NOT AVBL  
KULA 1* N/A 58 -6 7 E3 N/A  

 
 
HIZ023>026-191400-  
BIG ISLAND OF HAWAII COAST AND LOWER SLOPES-  
 
CITY SKY/WX TMP DP RH WIND PRES REMARKS
 
KAILUA KONA PTCLDY 72 61 68 CALM 30.04F  
HILO LGT RAIN 70 67 90 W7 30.11F FOG  
HONOKAA* NOT AVBL  
KAWAIHAE MWT* N/A 75 N/A N/A NE8 N/A  
KAWAIHAE* N/A 75 N/A N/A NE5G12 N/A  
SOUTH POINT* N/A 68 N/A N/A NE18G25 N/A  
UPOLU AIRPORT* N/A N/A N/A N/A E15G22 N/A  
KAMUELA* SUNNY 59 59 100 NE12 30.15F  
HAKALAU* N/A N/A N/A N/A SW6 N/A  
KALOKO-HONOKO* N/A 66 57 72 NW3 30.03S  
PALI 2* N/A 63 55 77 N20G31 N/A  
KEALAKOMO* N/A 84 70 61 N18G29 N/A  
KAUPULEHU* NOT AVBL  
KAPAPALA* N/A 56 53 90 CALM N/A  
LOWER KAHUKU* N/A 61 54 77 VRB3G15 N/A  
PUHE CS* NOT AVBL  
PUHO CS* N/A 70 55 57 E3 N/A  
PTA KEAMUKU* N/A 54 50 87 CALM N/A  
WAIKOLOA* NOT AVBL  

 
 
HIZ027>028-191400-  
BIG ISLAND OF HAWAII INTERIOR AND SUMMMITS-  
 
CITY SKY/WX TMP DP RH WIND PRES REMARKS
 
BRADSHAW FIELD PTCLDY 51 43 74 SE12G22 30.36F  
MK VISITOR CEN NOT AVBL  
MAUNA KEA* N/A 32 -27 7 S23 N/A WCI 19  
MAUNA LOA* N/A 45 -38 2 MISG N/A  
MAUNA LOA 1* NOT AVBL  
PTA KIPUKA* N/A N/A N/A N/A SE5 N/A  
PTA RANGE 17* N/A 55 41 58 E13G30 N/A  
PTA WEST* N/A 52 46 82 SE10 N/A  
NENE CABIN* N/A N/A N/A N/A NE6G13 N/A  
AHUMOA* NOT AVBL  
PTA PORTABLE* NOT AVBL  
PUU MALI* NOT AVBL  

 
 
HIC003-191400-  
NORTHWEST ISLANDS-  
 
CITY SKY/WX TMP DP RH WIND PRES REMARKS
 
MIDWAY ISLAND CLEAR 73 70 88 SW17 29.99F  
MIDWAY NOS* NOT AVBL  
FRENCH FRIGATE NOT AVBL  

 
 
PHZ110>124-180-191400-  
BUOY REPORTS  
 
STATION/POSITION TIME TEMP WIND PRES WAVE SWELL
 
AIR SEA DIR/SP/G HT/PER HT/DIR  
(UTC) (F) (DEG/KT/KT) (MB) (FT/S) (FT/D)  
BUOY 51001 NOT AVBL  
BUOY 51101 1300 75 77 110/ 14/ 17 1019.4F 10/14 10/310  
BUOY 51100 1300 74 100/ 14 N/A  
BUOY 51003 1300 78 79 80/ 16/ 19 1017.5F 8/ 8 5  
BUOY 51004 1153 74 78 70/ 17/ 23 1016.6 9/ 9 5/ 90  
BARBERS PT BUOY NOT AVBL  
WAIMEA BAY BUOY 1300 77 N/A 8/14  
KAILUA BAY BUOY 1300 77 N/A 7/14 3/350  
LANAI BUOY 1200 78 N/A 3/15 2/300  
BARBERS PT 2 1200 77 N/A 6/14 3/310  
PAUWELA MAUI 1300 76 N/A 9/15 5/340  
HILO 1300 78 N/A 8/ 8  
KANEOHE BAY BUOY 1300 77 N/A 7/ 7 3/340  
HANALEI KAUAI NOT AVBL  
KAHULUI HARBOR 1300 72 76 90/ 8/ 19 1018.4F  
HONOLULU HARBOR 1300 75 50/ 4/ 9 1019.1F  
KILO NALU NOT AVBL  
HILO HARBOR 1300 70 250/ 4/ 4 1019.5F  
MOKUOLOE 1300 75 75 80/ 11/ 15 1019.6F  
NAWILIWILI 1300 78 N/A  
WHOTS BUOY NOT AVBL  
BUOY 51028 NOT AVBL  

 
   
.....................KEY.....................................
 
 
SKY/WX - SKY CONDITIONS/PRESENT WEATHER  
TMP - TEMPERATURE IN FAHRENHEIT  
DWPT - DEWPOINT IN FAHRENHEIT  
RH - RELATIVE HUMIDITY IN PERCENT  
WIND - DIRECTION AND SPEED /MPH FOR ISLANDS...KTS FOR BUOYS/  
PRES - MEAN SEA LEVEL PRESSURE IN INCHES OF HG  
VSB - VISIBILITY IN MILES  
HX - HEAT INDEX  
WCI - WIND CHILL INDEX  
VRB - VARIABLE WIND DIRECTION  
N/A - NOT AVAILABLE  
 
CLICK HERE TO GO TO PREVIOUS BULLETINS.

The Nexlab HI Page Main Text Page